sat.trackr.live / text

‹ back to catalog

STARLINK-32310

NORAD 61662 · 2024-193B

PAYLOAD ACTIVE UNKNOWN

§ Identity

Operator
Country
US
Launch date
2024-10-26
Launch site
AFETR
Launch vehicle
Mass (kg)
RCS (m²)

Purposes: comms

External: N2YO · Heavens-Above · Gunter

§ Orbital elements

Epoch: 2026-05-25T03:18:30.515616Z

Period
94.01 min
Inclination
53.1614°
Eccentricity
0.0001254
Mean motion
15.31702379 rev/d
Perigee alt
469.9 km
Apogee alt
471.6 km
Semi-major
6,848.9 km
B*
6.3692e-6
RAAN
95.7426°
Arg perigee
81.6439°
Mean anomaly
278.4704°
Rev number
8,823

§ Raw data

STARLINK-323101 61662U 24193B   26145.13785319 -.00000167  00000+0  63692-5 0  99902 61662  53.1614  95.7426 0001254  81.6439 278.4704 15.31702379 88230

JSON: /api/v1/satellites/61662 · /tle

For live sub-satellite position, see the globe view (requires WebGL).

§ Visibility from observer

Set your observer location to see the next 7 days of passes ≥ 10°. The values pass through the URL so the page stays shareable.

No JS? Fill the form by hand. The geolocation button needs JavaScript.